TimeEDT,TemperatureF,Dew PointF,Humidity,Sea Level PressureIn,VisibilityMPH,Wind Direction,Wind SpeedMPH,Gust SpeedMPH,PrecipitationIn,Events,Conditions,WindDirDegrees,DateUTC
12:53 AM,53.1,30.9,43,30.19,10.0,NW,4.6,-,N/A,,Clear,320,2013-05-26 04:53:00
1:53 AM,50.0,32.0,50,30.19,10.0,WNW,6.9,-,N/A,,Clear,300,2013-05-26 05:53:00
2:53 AM,51.1,32.0,48,30.19,10.0,West,8.1,-,N/A,,Clear,280,2013-05-26 06:53:00
3:53 AM,50.0,32.0,50,30.19,10.0,West,10.4,-,N/A,,Clear,280,2013-05-26 07:53:00
4:53 AM,48.9,30.9,50,30.20,10.0,WNW,10.4,16.1,N/A,,Clear,290,2013-05-26 08:53:00
5:53 AM,48.9,30.9,50,30.21,10.0,WNW,11.5,-,N/A,,Clear,290,2013-05-26 09:53:00
6:53 AM,51.1,30.9,46,30.22,10.0,WNW,9.2,-,N/A,,Clear,290,2013-05-26 10:53:00
7:53 AM,53.1,32.0,45,30.23,10.0,NW,5.8,-,N/A,,Clear,320,2013-05-26 11:53:00
8:53 AM,57.0,33.1,40,30.24,10.0,NNW,5.8,-,N/A,,Clear,330,2013-05-26 12:53:00
9:53 AM,59.0,33.1,38,30.24,10.0,NNW,15.0,-,N/A,,Clear,340,2013-05-26 13:53:00
10:53 AM,60.1,34.0,38,30.23,10.0,West,10.4,-,N/A,,Clear,280,2013-05-26 14:53:00
11:53 AM,63.0,35.1,35,30.22,10.0,NW,8.1,16.1,N/A,,Clear,320,2013-05-26 15:53:00
12:53 PM,66.0,34.0,30,30.20,10.0,WNW,11.5,18.4,N/A,,Clear,300,2013-05-26 16:53:00
1:53 PM,69.1,30.0,23,30.17,10.0,WNW,18.4,24.2,N/A,,Clear,290,2013-05-26 17:53:00
2:53 PM,70.0,30.9,24,30.16,10.0,West,13.8,18.4,N/A,,Clear,280,2013-05-26 18:53:00
3:53 PM,71.1,30.9,23,30.16,10.0,WNW,12.7,21.9,N/A,,Clear,300,2013-05-26 19:53:00
4:53 PM,71.1,30.9,23,30.15,10.0,NW,15.0,23.0,N/A,,Clear,310,2013-05-26 20:53:00
5:53 PM,71.1,32.0,24,30.15,10.0,NNW,15.0,-,N/A,,Clear,330,2013-05-26 21:53:00
6:53 PM,69.1,32.0,25,30.15,10.0,NNW,12.7,-,N/A,,Clear,340,2013-05-26 22:53:00
7:53 PM,66.9,33.1,28,30.17,10.0,North,4.6,-,N/A,,Clear,350,2013-05-26 23:53:00
8:53 PM,62.1,34.0,35,30.19,10.0,WNW,5.8,-,N/A,,Clear,300,2013-05-27 00:53:00
9:53 PM,55.0,39.0,55,30.22,10.0,WSW,4.6,-,N/A,,Clear,250,2013-05-27 01:53:00
10:53 PM,51.1,39.9,66,30.23,10.0,Calm,Calm,-,N/A,,Clear,0,2013-05-27 02:53:00
11:53 PM,50.0,39.0,66,30.25,10.0,SW,3.5,-,N/A,,Clear,220,2013-05-27 03:53:00